Weather History for KGSH - January, 2014

Change the Weather History Date:

Saturday, January 11, 2014

  Actual Average Record
Temperature  
Mean Temperature 38 °F -  
Max Temperature 43 °F 29 °F 57 °F (1975)
Min Temperature 33 °F 13 °F -12 °F (1957)
Degree Days  
Heating Degree Days 27    
Moisture  
Dew Point 35 °F    
Average Humidity 90    
Maximum Humidity 100    
Minimum Humidity 81    
Precipitation  
Precipitation 0.05 in - - ()
Sea Level Pressure  
Sea Level Pressure 29.51 in    
Wind  
Wind Speed 14 mph (WSW)    
Max Wind Speed 18 mph    
Max Gust Speed 25 mph    
Visibility 3 miles    
Events Fog , Rain , Snow    
Averages and records for this station are not official NWS values.
T = Trace of Precipitation, MM = Missing Value Source: NWS Daily Summary

Daily Weather History Graph

Daily Weather History Graph

Search for Another Location

Airport or City:

Trip Planner

Search our weather history database for the weather conditions in past years. The results will help you decide how hot, cold, wet, or windy it might be!

Date:

Astronomy

Jan. 11, 2014 Rise Set
Actual Time 8:08 AM EST 5:33 PM EST
Civil Twilight 7:37 AM EST 6:04 PM EST
Nautical Twilight 7:03 AM EST 6:39 PM EST
Astronomical Twilight 6:30 AM EST 7:12 PM EST
Moon 2:18 PM EST (1/11) 4:12 AM EST (1/11)
Length of Visible Light 10h 26m
Length of Day
9h 25m
Waxing Gibbous, 83% of the Moon is Illuminated
Jan 11
Waxing Gibbous
Jan 15
Full
Jan 24
Last Quarter
Jan 30
New
Feb 6
First Quarter

Hourly Weather History & Observations

Time (EST) Temp. Windchill Dew Point Humidity Pressure Visibility Wind Dir Wind Speed Gust Speed Precip Events Conditions
12:41 AM 42.8 °F 34.8 °F 39.2 °F 87% 29.56 in 8.0 mi South 17.3 mph - 0.00 in   Mostly Cloudy
12:48 AM 42.8 °F 34.8 °F 39.2 °F 87% 29.56 in 8.0 mi South 17.3 mph - 0.00 in   Mostly Cloudy
12:53 AM 43.0 °F 34.8 °F 41.0 °F 93% 29.58 in 9.0 mi South 18.4 mph - 0.00 in   Mostly Cloudy
1:03 AM 42.8 °F 35.1 °F 41.0 °F 93% 29.57 in 9.0 mi South 16.1 mph - N/A   Overcast
1:29 AM 42.8 °F 35.4 °F 39.2 °F 87% 29.56 in 5.0 mi South 15.0 mph - N/A   Overcast
1:53 AM 42.1 °F 34.9 °F 39.9 °F 92% 29.57 in 2.5 mi South 13.8 mph - N/A   Overcast
2:25 AM 42.8 °F 36.6 °F 39.2 °F 87% 29.54 in 1.0 mi South 11.5 mph - N/A   Overcast
2:32 AM 42.8 °F 36.2 °F 39.2 °F 87% 29.54 in 0.5 mi South 12.7 mph - N/A Fog Fog
2:53 AM 42.1 °F 34.9 °F 39.9 °F 92% 29.54 in 0.2 mi South 13.8 mph - N/A Fog Fog
3:53 AM 42.1 °F 34.9 °F 41.0 °F 96% 29.51 in 0.2 mi South 13.8 mph - N/A Fog Fog
4:53 AM 42.1 °F 35.2 °F 41.0 °F 96% 29.46 in 0.2 mi South 12.7 mph - N/A Fog Fog
5:53 AM 42.1 °F 36.6 °F 39.9 °F 92% 29.44 in 0.2 mi South 9.2 mph - N/A Fog Fog
6:39 AM 42.8 °F 35.8 °F 41.0 °F 93% 29.42 in 1.0 mi SSW 13.8 mph - 0.02 in Rain Light Rain
6:53 AM 42.1 °F 36.1 °F 39.9 °F 92% 29.43 in 0.8 mi SSW 10.4 mph - 0.02 in Rain Light Rain
7:08 AM 42.8 °F 36.2 °F 39.2 °F 87% 29.41 in 1.2 mi SSW 12.7 mph - 0.00 in   Overcast
7:39 AM 42.8 °F 36.2 °F 39.2 °F 87% 29.41 in 3.0 mi SW 12.7 mph - 0.01 in Rain Light Rain
7:53 AM 42.1 °F 34.9 °F 39.9 °F 92% 29.42 in 4.0 mi SW 13.8 mph - 0.02 in Rain Light Rain
8:48 AM 41.0 °F 34.7 °F 39.2 °F 93% 29.40 in 1.8 mi WSW 10.4 mph - 0.01 in   Overcast
8:53 AM 39.9 °F 33.4 °F 39.0 °F 97% 29.42 in 1.2 mi WSW 10.4 mph - 0.01 in   Overcast
9:01 AM 39.2 °F 33.6 °F 39.2 °F 100% 29.41 in 0.5 mi WSW 8.1 mph - N/A Fog Fog
9:53 AM 39.0 °F 31.8 °F 37.9 °F 96% 29.44 in 0.2 mi WSW 11.5 mph - N/A Fog Fog
10:53 AM 37.9 °F 29.2 °F 37.0 °F 97% 29.45 in 0.5 mi West 15.0 mph - N/A Fog Fog
11:01 AM 37.4 °F 28.5 °F 37.4 °F 100% 29.44 in 0.8 mi West 15.0 mph - N/A   Overcast
11:21 AM 37.4 °F 28.5 °F 35.6 °F 93% 29.44 in 0.5 mi West 15.0 mph - N/A Fog Fog
11:53 AM 37.0 °F 28.5 °F 35.1 °F 93% 29.46 in 0.5 mi WSW 13.8 mph - N/A Fog Fog
12:17 PM 35.6 °F 26.2 °F 35.6 °F 100% 29.44 in 1.0 mi West 15.0 mph - N/A   Overcast
12:43 PM 35.6 °F 25.9 °F 33.8 °F 93% 29.44 in 3.0 mi West 16.1 mph 25.3 mph N/A   Overcast
12:53 PM 36.0 °F 26.7 °F 33.1 °F 89% 29.46 in 3.0 mi West 15.0 mph 21.9 mph N/A   Overcast
1:06 PM 35.6 °F 25.2 °F 33.8 °F 93% 29.45 in 2.5 mi West 18.4 mph - 0.00 in   Overcast
1:21 PM 35.6 °F 25.9 °F 33.8 °F 93% 29.45 in 1.2 mi West 16.1 mph - 0.00 in Snow Light Snow
1:42 PM 35.6 °F 26.2 °F 32.0 °F 87% 29.46 in 3.0 mi WSW 15.0 mph - 0.00 in Snow Light Snow
1:53 PM 35.1 °F 25.2 °F 32.0 °F 89% 29.48 in 4.0 mi West 16.1 mph 23.0 mph 0.00 in   Overcast
2:32 PM 35.6 °F 26.6 °F 32.0 °F 87% 29.47 in 2.5 mi West 13.8 mph 23.0 mph N/A   Overcast
2:53 PM 35.1 °F 26.4 °F 33.1 °F 92% 29.49 in 2.5 mi West 12.7 mph - N/A   Overcast
3:25 PM 35.6 °F 25.9 °F 32.0 °F 87% 29.49 in 3.0 mi West 16.1 mph - N/A   Overcast
3:53 PM 35.1 °F 24.8 °F 32.0 °F 89% 29.53 in 3.0 mi West 17.3 mph - N/A   Overcast
4:13 PM 33.8 °F 24.3 °F 32.0 °F 93% 29.52 in 2.5 mi WSW 13.8 mph - N/A   Overcast
4:29 PM 33.8 °F 24.3 °F 30.2 °F 87% 29.53 in 3.0 mi West 13.8 mph - N/A   Overcast
4:53 PM 34.0 °F 25.0 °F 30.9 °F 89% 29.56 in 3.0 mi West 12.7 mph - N/A   Overcast
5:07 PM 33.8 °F 24.3 °F 30.2 °F 87% 29.55 in 4.0 mi WSW 13.8 mph - N/A   Overcast
5:31 PM 33.8 °F 23.5 °F 30.2 °F 87% 29.56 in 5.0 mi WSW 16.1 mph - N/A   Overcast
5:53 PM 34.0 °F 25.0 °F 28.9 °F 82% 29.59 in 7.0 mi West 12.7 mph - N/A   Overcast
6:53 PM 34.0 °F 25.0 °F 28.9 °F 82% 29.62 in 7.0 mi WSW 12.7 mph - N/A   Overcast
7:53 PM 34.0 °F 26.0 °F 28.9 °F 82% 29.65 in 6.0 mi WSW 10.4 mph - N/A   Haze
8:53 PM 34.0 °F 24.2 °F 28.9 °F 82% 29.68 in 5.0 mi West 15.0 mph - N/A   Haze
9:03 PM 33.8 °F 24.8 °F 28.4 °F 81% 29.66 in 5.0 mi West 12.7 mph - N/A   Haze
9:53 PM 34.0 °F 25.0 °F 30.0 °F 85% 29.70 in 4.0 mi West 12.7 mph - N/A   Overcast
10:53 PM 34.0 °F 25.0 °F 28.9 °F 82% 29.73 in 5.0 mi West 12.7 mph - N/A   Haze
11:53 PM 34.0 °F 24.6 °F 28.9 °F 82% 29.74 in 5.0 mi West 13.8 mph - N/A   Haze